owner,sensor,date,latitude,longitude,vertical_datum,direction_of_sea_water_velocity,sea_water_speed,upward_sea_water_velocity,qcFlag 
TABS,ioos:station:wmo:42048:1,2010-12-01T00:00:00Z,27.9396,-96.8429,2.0,229.62415132843,11.577668159003,-99999.0,'1111122,1111122,1199999999' 
TABS,ioos:station:wmo:42048:1,2010-12-01T01:30:00Z,27.9396,-96.8429,2.0,227.85721891433,15.604031530345,-99999.0,'1111122,1111122,1199999999' 
TABS,ioos:station:wmo:42048:1,2010-12-01T02:00:00Z,27.9396,-96.8429,2.0,226.50283922613,11.593467988484,-99999.0,'1111122,1111122,1199999999' 
TABS,ioos:station:wmo:42048:1,2010-12-01T02:30:00Z,27.9396,-96.8429,2.0,239.44999534373,9.9746177871636,-99999.0,'1111122,1111122,1199999999' 
TABS,ioos:station:wmo:42048:1,2010-12-01T03:00:00Z,27.9396,-96.8429,2.0,230.99613146602,9.8828538388463,-99999.0,'1111122,1111122,1199999999' 
TABS,ioos:station:wmo:42048:1,2010-12-01T03:30:00Z,27.9396,-96.8429,2.0,237.0135442,6.998071163,-99999.0,'11133222,11111222,99999999' 
TABS,ioos:station:wmo:42048:1,2010-12-01T04:00:00Z,27.9396,-96.8429,2.0,229.9577141,8.999788886,-99999.0,'11133222,11111222,99999999' 
TABS,ioos:station:wmo:42048:1,2010-12-01T04:30:00Z,27.9396,-96.8429,2.0,224.9996843,9.998489886,-99999.0,'11133222,11111222,99999999' 
TABS,ioos:station:wmo:42048:1,2010-12-01T05:00:00Z,27.9396,-96.8429,2.0,232.9960335,5.998016339,-99999.0,'11133222,11111222,99999999' 
TABS,ioos:station:wmo:42048:1,2010-12-01T05:30:00Z,27.9396,-96.8429,2.0,219.0472388,6.000333324,-99999.0,'11133222,11111222,99999999' 
TABS,ioos:station:wmo:42048:1,2010-12-01T06:00:00Z,27.9396,-96.8429,2.0,195.0788883,3.997649309,-99999.0,'11133222,11111222,99999999' 
TABS,ioos:station:wmo:42048:1,2010-12-01T06:30:00Z,27.9396,-96.8429,2.0,134.9998948,1.004091629,-99999.0,'11133222,11111222,99999999' 
TABS,ioos:station:wmo:42048:1,2010-12-01T07:00:00Z,27.9396,-96.8429,2.0,214.9213258,4.000312488,-99999.0,'11133222,11111222,99999999' 
TABS,ioos:station:wmo:42048:1,2010-12-01T07:30:00Z,27.9396,-96.8429,2.0,167.0052031,4.002499219,-99999.0,'11133222,11111222,99999999' 
TABS,ioos:station:wmo:42048:1,2010-12-01T08:00:00Z,27.9396,-96.8429,2.0,259.9716938,4.996328652,-99999.0,'11133222,11111222,99999999' 
TABS,ioos:station:wmo:42048:1,2010-12-01T08:30:00Z,27.9396,-96.8429,2.0,0.000210459,4.0,-99999.0,'11133222,11111222,99999999' 
TABS,ioos:station:wmo:42048:1,2010-12-01T09:00:00Z,27.9396,-96.8429,2.0,224.9996843,1.004091629,-99999.0,'11133222,11111222,99999999' 
TABS,ioos:station:wmo:42048:1,2010-12-01T09:30:00Z,27.9396,-96.8429,2.0,45.00010523,1.004091629,-99999.0,'11133222,11111222,99999999' 
TABS,ioos:station:wmo:42048:1,2010-12-01T10:00:00Z,27.9396,-96.8429,2.0,27.07789854,1.999124809,-99999.0,'11133222,11111222,99999999' 
TABS,ioos:station:wmo:42048:1,2010-12-01T10:30:00Z,27.9396,-96.8429,2.0,315.0003157,1.004091629,-99999.0,'11133222,11111222,99999999' 
TABS,ioos:station:wmo:42048:1,2010-12-01T11:00:00Z,27.9396,-96.8429,2.0,0.000210459,3.0,-99999.0,'11133222,11111222,99999999' 
TABS,ioos:station:wmo:42048:1,2010-12-01T11:30:00Z,27.9396,-96.8429,2.0,27.07789854,1.999124809,-99999.0,'11133222,11111222,99999999' 
TABS,ioos:station:wmo:42048:1,2010-12-01T12:00:00Z,27.9396,-96.8429,2.0,0.000210459,4.0,-99999.0,'11133222,11111222,99999999' 
TABS,ioos:station:wmo:42048:1,2010-12-01T12:30:00Z,27.9396,-96.8429,2.0,56.94616161,3.996861269,-99999.0,'11133222,11111222,99999999' 
TABS,ioos:station:wmo:42048:1,2010-12-01T13:00:00Z,27.9396,-96.8429,2.0,22.97287807,4.996248593,-99999.0,'11133222,11111222,99999999' 
TABS,ioos:station:wmo:42048:1,2010-12-01T13:30:00Z,27.9396,-96.8429,2.0,10.95424749,5.999308293,-99999.0,'11133222,11111222,99999999' 
TABS,ioos:station:wmo:42048:1,2010-12-01T14:00:00Z,27.9396,-96.8429,2.0,7.978316318,7.997405829,-99999.0,'11133222,11111222,99999999' 
TABS,ioos:station:wmo:42048:1,2010-12-01T14:30:00Z,27.9396,-96.8429,2.0,10.95424749,5.999308293,-99999.0,'11133222,11111222,99999999' 
TABS,ioos:station:wmo:42048:1,2010-12-01T15:00:00Z,27.9396,-96.8429,2.0,19.97511313,6.001008249,-99999.0,'11133222,11111222,99999999' 
TABS,ioos:station:wmo:42048:1,2010-12-01T15:30:00Z,27.9396,-96.8429,2.0,23.96991534,7.9999125,-99999.0,'11133222,11111222,99999999' 
TABS,ioos:station:wmo:42048:1,2010-12-01T16:00:00Z,27.9396,-96.8429,2.0,24.00334458,10.00522364,-99999.0,'11111222,11111222,99999999' 
TABS,ioos:station:wmo:42048:1,2010-12-01T16:30:00Z,27.9396,-96.8429,2.0,52.9964544,5.998016339,-99999.0,'11133222,11111222,99999999' 
TABS,ioos:station:wmo:42048:1,2010-12-01T17:00:00Z,27.9396,-96.8429,2.0,0.000210459,6.0,-99999.0,'11133222,11111222,99999999' 
TABS,ioos:station:wmo:42048:1,2010-12-01T17:30:00Z,27.9396,-96.8429,2.0,27.00423801,7.003570518,-99999.0,'11133222,11111222,99999999' 
TABS,ioos:station:wmo:42048:1,2010-12-01T18:00:00Z,27.9396,-96.8429,2.0,40.9974567,8.002755775,-99999.0,'11133222,11111222,99999999' 
TABS,ioos:station:wmo:42048:1,2010-12-01T18:30:00Z,27.9396,-96.8429,2.0,45.00010523,8.004448763,-99999.0,'11133222,11111222,99999999' 
TABS,ioos:station:wmo:42048:1,2010-12-01T19:00:00Z,27.9396,-96.8429,2.0,38.12530328,1.004241007,-99999.0,'11133222,11111222,99999999' 
TABS,ioos:station:wmo:42048:1,2010-12-01T19:30:00Z,27.9396,-96.8429,2.0,71.92772011,2.997899264,-99999.0,'11133222,11111222,99999999' 
TABS,ioos:station:wmo:42048:1,2010-12-01T20:00:00Z,27.9396,-96.8429,2.0,39.04765971,6.000333324,-99999.0,'11133222,11111222,99999999' 
TABS,ioos:station:wmo:42048:1,2010-12-01T20:30:00Z,27.9396,-96.8429,2.0,60.01843074,6.003332408,-99999.0,'11133222,11111222,99999999' 
TABS,ioos:station:wmo:42048:1,2010-12-01T21:00:00Z,27.9396,-96.8429,2.0,60.01843074,6.003332408,-99999.0,'11133222,11111222,99999999' 
TABS,ioos:station:wmo:42048:1,2010-12-01T21:30:00Z,27.9396,-96.8429,2.0,72.04808091,6.002216257,-99999.0,'11133222,11111222,99999999' 
TABS,ioos:station:wmo:42048:1,2010-12-01T22:00:00Z,27.9396,-96.8429,2.0,75.01060486,6.998121176,-99999.0,'11133222,11111222,99999999' 
TABS,ioos:station:wmo:42048:1,2010-12-01T22:30:00Z,27.9396,-96.8429,2.0,84.00433809,8.999227745,-99999.0,'11133222,11111222,99999999' 
TABS,ioos:station:wmo:42048:1,2010-12-01T23:00:00Z,27.9396,-96.8429,2.0,107.0364652,6.997042232,-99999.0,'11133222,11111222,99999999' 
TABS,ioos:station:wmo:42048:1,2010-12-01T23:30:00Z,27.9396,-96.8429,2.0,90.0,4.0,-99999.0,'11133222,11111222,99999999' 
TABS,ioos:station:wmo:42048:1,2010-12-02T00:00:00Z,27.9396,-96.8429,2.0,51.03825792,7.999331222,-99999.0,'11133222,11111222,99999999' 
TABS,ioos:station:wmo:42048:1,2010-12-02T00:30:00Z,27.9396,-96.8429,2.0,34.92174668,4.000312488,-99999.0,'11133222,11111222,99999999' 
TABS,ioos:station:wmo:42048:1,2010-12-02T01:00:00Z,27.9396,-96.8429,2.0,38.01578205,5.0009999,-99999.0,'11133222,11111222,99999999' 
TABS,ioos:station:wmo:42048:1,2010-12-02T01:30:00Z,27.9396,-96.8429,2.0,40.9974567,8.002755775,-99999.0,'11133222,11111222,99999999' 
TABS,ioos:station:wmo:42048:1,2010-12-02T02:00:00Z,27.9396,-96.8429,2.0,41.98259272,8.999805553,-99999.0,'11133222,11111222,99999999' 
TABS,ioos:station:wmo:42048:1,2010-12-02T02:30:00Z,27.9396,-96.8429,2.0,29.99370736,8.001556099,-99999.0,'11133222,11111222,99999999' 
TABS,ioos:station:wmo:42048:1,2010-12-02T03:00:00Z,27.9396,-96.8429,2.0,38.01578205,5.0009999,-99999.0,'11133222,11111222,99999999' 
TABS,ioos:station:wmo:42048:1,2010-12-02T03:30:00Z,27.9396,-96.8429,2.0,52.9964544,5.998016339,-99999.0,'11133222,11111222,99999999' 
TABS,ioos:station:wmo:42048:1,2010-12-02T04:00:00Z,27.9396,-96.8429,2.0,34.451223407284,7.7248818761195,-99999.0,'1111122,1111122,1199999999' 
TABS,ioos:station:wmo:42048:1,2010-12-02T04:30:00Z,27.9396,-96.8429,2.0,56.00975939,8.997360724,-99999.0,'11133222,11111222,99999999' 
TABS,ioos:station:wmo:42048:1,2010-12-02T05:00:00Z,27.9396,-96.8429,2.0,64.97327111,6.996942189,-99999.0,'11133222,11111222,99999999' 
TABS,ioos:station:wmo:42048:1,2010-12-02T05:30:00Z,27.9396,-96.8429,2.0,67.98594402,8.003524224,-99999.0,'11133222,11111222,99999999' 
TABS,ioos:station:wmo:42048:1,2010-12-02T06:00:00Z,27.9396,-96.8429,2.0,263.0268261,7.001785487,-99999.0,'11133222,11111222,99999999' 
TABS,ioos:station:wmo:42048:1,2010-12-02T06:30:00Z,27.9396,-96.8429,2.0,72.00798926,9.00011111,-99999.0,'11133222,11111222,99999999' 
TABS,ioos:station:wmo:42048:1,2010-12-02T07:00:00Z,27.9396,-96.8429,2.0,57.01396514,6.998071163,-99999.0,'11133222,11111222,99999999' 
TABS,ioos:station:wmo:42048:1,2010-12-02T07:30:00Z,27.9396,-96.8429,2.0,56.00975939,8.997360724,-99999.0,'11133222,11111222,99999999' 
TABS,ioos:station:wmo:42048:1,2010-12-02T08:00:00Z,27.9396,-96.8429,2.0,78.00312875,8.996493761,-99999.0,'11133222,11111222,99999999' 
TABS,ioos:station:wmo:42048:1,2010-12-02T08:30:00Z,27.9396,-96.8429,2.0,75.01060486,6.998121176,-99999.0,'11133222,11111222,99999999' 
TABS,ioos:station:wmo:42048:1,2010-12-02T09:00:00Z,27.9396,-96.8429,2.0,75.01060486,6.998121176,-99999.0,'11133222,11111222,99999999' 
TABS,ioos:station:wmo:42048:1,2010-12-02T09:30:00Z,27.9396,-96.8429,2.0,128.0155716,5.0009999,-99999.0,'11133222,11111222,99999999' 
TABS,ioos:station:wmo:42048:1,2010-12-02T10:00:00Z,27.9396,-96.8429,2.0,102.0066802,4.99936996,-99999.0,'11133222,11111222,99999999' 
TABS,ioos:station:wmo:42048:1,2010-12-02T10:30:00Z,27.9396,-96.8429,2.0,124.9215362,4.000312488,-99999.0,'11133222,11111222,99999999' 
TABS,ioos:station:wmo:42048:1,2010-12-02T11:00:00Z,27.9396,-96.8429,2.0,112.9726676,4.996248593,-99999.0,'11133222,11111222,99999999' 
TABS,ioos:station:wmo:42048:1,2010-12-02T11:30:00Z,27.9396,-96.8429,2.0,128.0155716,5.0009999,-99999.0,'11133222,11111222,99999999' 
TABS,ioos:station:wmo:42048:1,2010-12-02T12:00:00Z,27.9396,-96.8429,2.0,117.0776881,1.999124809,-99999.0,'11133222,11111222,99999999' 
TABS,ioos:station:wmo:42048:1,2010-12-02T12:30:00Z,27.9396,-96.8429,2.0,124.9215362,4.000312488,-99999.0,'11133222,11111222,99999999' 
TABS,ioos:station:wmo:42048:1,2010-12-02T13:00:00Z,27.9396,-96.8429,2.0,167.0052031,4.002499219,-99999.0,'11133222,11111222,99999999' 
TABS,ioos:station:wmo:42048:1,2010-12-02T13:30:00Z,27.9396,-96.8429,2.0,224.9996843,2.998132752,-99999.0,'11133222,11111222,99999999' 
TABS,ioos:station:wmo:42048:1,2010-12-02T14:00:00Z,27.9396,-96.8429,2.0,202.9724572,4.996248593,-99999.0,'11133222,11111222,99999999' 
TABS,ioos:station:wmo:42048:1,2010-12-02T14:30:00Z,27.9396,-96.8429,2.0,179.9997895,6.0,-99999.0,'11133222,11111222,99999999' 
TABS,ioos:station:wmo:42048:1,2010-12-02T15:00:00Z,27.9396,-96.8429,2.0,201.0029631,11.99708298,-99999.0,'11111222,11111222,99999999' 
TABS,ioos:station:wmo:42048:1,2010-12-02T15:30:00Z,27.9396,-96.8429,2.0,193.9825328,12.99506445,-99999.0,'11111222,11111222,99999999' 
TABS,ioos:station:wmo:42048:1,2010-12-02T16:00:00Z,27.9396,-96.8429,2.0,201.020795,14.99814655,-99999.0,'11111222,11111222,99999999' 
TABS,ioos:station:wmo:42048:1,2010-12-02T16:30:00Z,27.9396,-96.8429,2.0,197.9870821,17.0009235,-99999.0,'11111222,11111222,99999999' 
TABS,ioos:station:wmo:42048:1,2010-12-02T17:00:00Z,27.9396,-96.8429,2.0,193.9869667,17.0041789,-99999.0,'11111222,11111222,99999999' 
TABS,ioos:station:wmo:42048:1,2010-12-02T17:30:00Z,27.9396,-96.8429,2.0,200.0154887,17.99704698,-99999.0,'11111222,11111222,99999999' 
TABS,ioos:station:wmo:42048:1,2010-12-02T18:00:00Z,27.9396,-96.8429,2.0,193.9917906,22.00283845,-99999.0,'11111222,11111222,99999999' 
TABS,ioos:station:wmo:42048:1,2010-12-02T18:30:00Z,27.9396,-96.8429,2.0,194.9973046,23.99742695,-99999.0,'11111222,11111222,99999999' 
TABS,ioos:station:wmo:42048:1,2010-12-02T19:00:00Z,27.9396,-96.8429,2.0,196.9852797,23.00344322,-99999.0,'11111222,11111222,99999999' 
TABS,ioos:station:wmo:42048:1,2010-12-02T19:30:00Z,27.9396,-96.8429,2.0,261.0083528,23.9948432,-99999.0,'11111222,11111222,99999999' 
TABS,ioos:station:wmo:42048:1,2010-12-02T20:00:00Z,27.9396,-96.8429,2.0,200.99611,22.99692371,-99999.0,'11111222,11111222,99999999' 
TABS,ioos:station:wmo:42048:1,2010-12-02T20:30:00Z,27.9396,-96.8429,2.0,204.0010144,20.99533281,-99999.0,'11111222,11111222,99999999' 
TABS,ioos:station:wmo:42048:1,2010-12-02T21:00:00Z,27.9396,-96.8429,2.0,200.99611,22.99692371,-99999.0,'11111222,11111222,99999999' 
TABS,ioos:station:wmo:42048:1,2010-12-02T21:30:00Z,27.9396,-96.8429,2.0,205.9939381,21.99505626,-99999.0,'11111222,11111222,99999999' 
TABS,ioos:station:wmo:42048:1,2010-12-02T22:00:00Z,27.9396,-96.8429,2.0,203.9900494,22.99657801,-99999.0,'11111222,11111222,99999999' 
TABS,ioos:station:wmo:42048:1,2010-12-02T22:30:00Z,27.9396,-96.8429,2.0,209.0102718,24.00145204,-99999.0,'11111222,11111222,99999999' 
TABS,ioos:station:wmo:42048:1,2010-12-02T23:00:00Z,27.9396,-96.8429,2.0,206.9948768,28.00083213,-99999.0,'11111222,11111222,99999999' 
TABS,ioos:station:wmo:42048:1,2010-12-02T23:30:00Z,27.9396,-96.8429,2.0,218.0022314,26.00308059,-99999.0,'11111222,11111222,99999999' 
TABS,ioos:station:wmo:42048:1,2010-12-03T00:00:00Z,27.9396,-96.8429,2.0,230.9938304,29.9968415,-99999.0,'11111222,11111222,99999999' 
TABS,ioos:station:wmo:42048:1,2010-12-03T00:30:00Z,27.9396,-96.8429,2.0,260.9971858,16.99940293,-99999.0,'11111222,11111222,99999999' 
TABS,ioos:station:wmo:42048:1,2010-12-03T01:00:00Z,27.9396,-96.8429,2.0,241.9974861,23.00295851,-99999.0,'11111222,11111222,99999999' 
TABS,ioos:station:wmo:42048:1,2010-12-03T01:30:00Z,27.9396,-96.8429,2.0,152.999198,19.99997,-99999.0,'11111222,11111222,99999999' 
TABS,ioos:station:wmo:42048:1,2010-12-03T02:00:00Z,27.9396,-96.8429,2.0,36.007546,19.00015263,-99999.0,'11111222,11111222,99999999' 
TABS,ioos:station:wmo:42048:1,2010-12-03T02:30:00Z,27.9396,-96.8429,2.0,260.9971858,16.99940293,-99999.0,'11111222,11111222,99999999' 
TABS,ioos:station:wmo:42048:1,2010-12-03T03:00:00Z,27.9396,-96.8429,2.0,263.9905872,17.00342613,-99999.0,'11111222,11111222,99999999' 
TABS,ioos:station:wmo:42048:1,2010-12-03T03:30:00Z,27.9396,-96.8429,2.0,274.9985063,14.00324605,-99999.0,'11111222,11111222,99999999' 
TABS,ioos:station:wmo:42048:1,2010-12-03T04:00:00Z,27.9396,-96.8429,2.0,260.9998833,10.99536266,-99999.0,'11111222,11111222,99999999' 
TABS,ioos:station:wmo:42048:1,2010-12-03T04:30:00Z,27.9396,-96.8429,2.0,237.0135442,6.998071163,-99999.0,'11133222,11111222,99999999' 
TABS,ioos:station:wmo:42048:1,2010-12-03T05:00:00Z,27.9396,-96.8429,2.0,62.00003655,20.00119246,-99999.0,'11111222,11111222,99999999' 
TABS,ioos:station:wmo:42048:1,2010-12-03T05:30:00Z,27.9396,-96.8429,2.0,277.9785268,7.997405829,-99999.0,'11133222,11111222,99999999' 
TABS,ioos:station:wmo:42048:1,2010-12-03T06:00:00Z,27.9396,-96.8429,2.0,263.0268261,7.001785487,-99999.0,'11133222,11111222,99999999' 
TABS,ioos:station:wmo:42048:1,2010-12-03T06:30:00Z,27.9396,-96.8429,2.0,237.0135442,6.998071163,-99999.0,'11133222,11111222,99999999' 
TABS,ioos:station:wmo:42048:1,2010-12-03T07:00:00Z,27.9396,-96.8429,2.0,237.0135442,6.998071163,-99999.0,'11133222,11111222,99999999' 
TABS,ioos:station:wmo:42048:1,2010-12-03T07:30:00Z,27.9396,-96.8429,2.0,219.0472388,6.000333324,-99999.0,'11133222,11111222,99999999' 
TABS,ioos:station:wmo:42048:1,2010-12-03T08:00:00Z,27.9396,-96.8429,2.0,231.037837,7.999331222,-99999.0,'11133222,11111222,99999999' 
TABS,ioos:station:wmo:42048:1,2010-12-03T08:30:00Z,27.9396,-96.8429,2.0,241.9608661,7.998824914,-99999.0,'11133222,11111222,99999999' 
TABS,ioos:station:wmo:42048:1,2010-12-03T09:00:00Z,27.9396,-96.8429,2.0,220.9970358,8.002755775,-99999.0,'11133222,11111222,99999999' 
TABS,ioos:station:wmo:42048:1,2010-12-03T09:30:00Z,27.9396,-96.8429,2.0,224.9996843,7.000357134,-99999.0,'11133222,11111222,99999999' 
TABS,ioos:station:wmo:42048:1,2010-12-03T10:00:00Z,27.9396,-96.8429,2.0,231.037837,7.999331222,-99999.0,'11133222,11111222,99999999' 
TABS,ioos:station:wmo:42048:1,2010-12-03T10:30:00Z,27.9396,-96.8429,2.0,240.0180098,6.003332408,-99999.0,'11133222,11111222,99999999' 
TABS,ioos:station:wmo:42048:1,2010-12-03T11:00:00Z,27.9396,-96.8429,2.0,244.9728502,6.996942189,-99999.0,'11133222,11111222,99999999' 
TABS,ioos:station:wmo:42048:1,2010-12-03T11:30:00Z,27.9396,-96.8429,2.0,234.0227929,5.004607877,-99999.0,'11133222,11111222,99999999' 
TABS,ioos:station:wmo:42048:1,2010-12-03T12:00:00Z,27.9396,-96.8429,2.0,245.0288882,9.00142211,-99999.0,'11133222,11111222,99999999' 
TABS,ioos:station:wmo:42048:1,2010-12-03T12:30:00Z,27.9396,-96.8429,2.0,237.0172646,11.00331768,-99999.0,'11111222,11111222,99999999' 
TABS,ioos:station:wmo:42048:1,2010-12-03T13:00:00Z,27.9396,-96.8429,2.0,244.9953296,11.00106358,-99999.0,'11111222,11111222,99999999' 
TABS,ioos:station:wmo:42048:1,2010-12-03T13:30:00Z,27.9396,-96.8429,2.0,277.9785268,7.997405829,-99999.0,'11133222,11111222,99999999' 
TABS,ioos:station:wmo:42048:1,2010-12-03T14:00:00Z,27.9396,-96.8429,2.0,238.9594571,8.99853877,-99999.0,'11133222,11111222,99999999' 
TABS,ioos:station:wmo:42048:1,2010-12-03T14:30:00Z,27.9396,-96.8429,2.0,236.0050404,12.00110828,-99999.0,'11111222,11111222,99999999' 
TABS,ioos:station:wmo:42048:1,2010-12-03T15:00:00Z,27.9396,-96.8429,2.0,237.0135442,13.99614233,-99999.0,'11111222,11111222,99999999' 
TABS,ioos:station:wmo:42048:1,2010-12-03T15:30:00Z,27.9396,-96.8429,2.0,243.0075496,18.0008472,-99999.0,'11111222,11111222,99999999' 
TABS,ioos:station:wmo:42048:1,2010-12-03T16:00:00Z,27.9396,-96.8429,2.0,238.9965841,19.99673973,-99999.0,'11111222,11111222,99999999' 
TABS,ioos:station:wmo:42048:1,2010-12-03T16:30:00Z,27.9396,-96.8429,2.0,338.979205,14.99814655,-99999.0,'11111222,11111222,99999999' 
TABS,ioos:station:wmo:42048:1,2010-12-03T17:00:00Z,27.9396,-96.8429,2.0,245.997349,19.00322341,-99999.0,'11111222,11111222,99999999' 
TABS,ioos:station:wmo:42048:1,2010-12-03T17:30:00Z,27.9396,-96.8429,2.0,242.9975723,17.00355551,-99999.0,'11111222,11111222,99999999' 
TABS,ioos:station:wmo:42048:1,2010-12-03T18:00:00Z,27.9396,-96.8429,2.0,247.9916717,16.99866171,-99999.0,'11111222,11111222,99999999' 
TABS,ioos:station:wmo:42048:1,2010-12-03T18:30:00Z,27.9396,-96.8429,2.0,239.0031421,18.00049444,-99999.0,'11111222,11111222,99999999' 
TABS,ioos:station:wmo:42048:1,2010-12-03T19:00:00Z,27.9396,-96.8429,2.0,243.0074738,20.99726173,-99999.0,'11111222,11111222,99999999' 
TABS,ioos:station:wmo:42048:1,2010-12-03T19:30:00Z,27.9396,-96.8429,2.0,244.9865905,17.99800545,-99999.0,'11111222,11111222,99999999' 
TABS,ioos:station:wmo:42048:1,2010-12-03T20:00:00Z,27.9396,-96.8429,2.0,247.9916717,16.99866171,-99999.0,'11111222,11111222,99999999' 
TABS,ioos:station:wmo:42048:1,2010-12-03T20:30:00Z,27.9396,-96.8429,2.0,246.0131888,16.99791164,-99999.0,'11111222,11111222,99999999' 
TABS,ioos:station:wmo:42048:1,2010-12-03T21:00:00Z,27.9396,-96.8429,2.0,247.9916717,16.99866171,-99999.0,'11111222,11111222,99999999' 
TABS,ioos:station:wmo:42048:1,2010-12-03T21:30:00Z,27.9396,-96.8429,2.0,246.0131888,16.99791164,-99999.0,'11111222,11111222,99999999' 
TABS,ioos:station:wmo:42048:1,2010-12-03T22:00:00Z,27.9396,-96.8429,2.0,249.0161042,16.00114058,-99999.0,'11111222,11111222,99999999' 
TABS,ioos:station:wmo:42048:1,2010-12-03T22:30:00Z,27.9396,-96.8429,2.0,254.9984966,18.00354687,-99999.0,'11111222,11111222,99999999' 
TABS,ioos:station:wmo:42048:1,2010-12-03T23:00:00Z,27.9396,-96.8429,2.0,258.0154822,17.00052352,-99999.0,'11111222,11111222,99999999' 
TABS,ioos:station:wmo:42048:1,2010-12-03T23:30:00Z,27.9396,-96.8429,2.0,260.9971858,16.99940293,-99999.0,'11111222,11111222,99999999' 
TABS,ioos:station:wmo:42048:1,2010-12-04T00:00:00Z,27.9396,-96.8429,2.0,260.9971858,16.99940293,-99999.0,'11111222,11111222,99999999' 
TABS,ioos:station:wmo:42048:1,2010-12-04T00:30:00Z,27.9396,-96.8429,2.0,263.9905872,17.00342613,-99999.0,'11111222,11111222,99999999' 
TABS,ioos:station:wmo:42048:1,2010-12-04T01:00:00Z,27.9396,-96.8429,2.0,267.0104612,13.9990464,-99999.0,'11111222,11111222,99999999' 
TABS,ioos:station:wmo:42048:1,2010-12-04T01:30:00Z,27.9396,-96.8429,2.0,292.9730885,3.996998874,-99999.0,'11133222,11111222,99999999' 
TABS,ioos:station:wmo:42048:1,2010-12-04T02:00:00Z,27.9396,-96.8429,2.0,270.0004209,13.0,-99999.0,'11111222,11111222,99999999' 
TABS,ioos:station:wmo:42048:1,2010-12-04T02:30:00Z,27.9396,-96.8429,2.0,59.99934237,19.99956,-99999.0,'11111222,11111222,99999999' 
TABS,ioos:station:wmo:42048:1,2010-12-04T03:00:00Z,27.9396,-96.8429,2.0,284.99176,8.002362151,-99999.0,'11133222,11111222,99999999' 
TABS,ioos:station:wmo:42048:1,2010-12-04T03:30:00Z,27.9396,-96.8429,2.0,304.9219571,4.000312488,-99999.0,'11133222,11111222,99999999' 
TABS,ioos:station:wmo:42048:1,2010-12-04T04:00:00Z,27.9396,-96.8429,2.0,65.03503192,4.004122875,-99999.0,'11133222,11111222,99999999' 
TABS,ioos:station:wmo:42048:1,2010-12-04T04:30:00Z,27.9396,-96.8429,2.0,0.000210459,4.0,-99999.0,'11133222,11111222,99999999' 
TABS,ioos:station:wmo:42048:1,2010-12-04T05:00:00Z,27.9396,-96.8429,2.0,20.06479502,3.002215848,-99999.0,'11133222,11111222,99999999' 
TABS,ioos:station:wmo:42048:1,2010-12-04T05:30:00Z,27.9396,-96.8429,2.0,45.00010523,4.002224382,-99999.0,'11133222,11111222,99999999' 
TABS,ioos:station:wmo:42048:1,2010-12-04T06:00:00Z,27.9396,-96.8429,2.0,65.93569531,3.997424171,-99999.0,'11133222,11111222,99999999' 
TABS,ioos:station:wmo:42048:1,2010-12-04T06:30:00Z,27.9396,-96.8429,2.0,64.97327111,6.996942189,-99999.0,'11133222,11111222,99999999' 
TABS,ioos:station:wmo:42048:1,2010-12-04T07:00:00Z,27.9396,-96.8429,2.0,83.02724702,7.001785487,-99999.0,'11133222,11111222,99999999' 
TABS,ioos:station:wmo:42048:1,2010-12-04T07:30:00Z,27.9396,-96.8429,2.0,45.00010523,7.000357134,-99999.0,'11133222,11111222,99999999' 
TABS,ioos:station:wmo:42048:1,2010-12-04T08:00:00Z,27.9396,-96.8429,2.0,50.01449437,11.0022634,-99999.0,'11111222,11111222,99999999' 
TABS,ioos:station:wmo:42048:1,2010-12-04T08:30:00Z,27.9396,-96.8429,2.0,49.95813498,8.999788886,-99999.0,'11133222,11111222,99999999' 
TABS,ioos:station:wmo:42048:1,2010-12-04T09:00:00Z,27.9396,-96.8429,2.0,148.9596676,8.99853877,-99999.0,'11133222,11111222,99999999' 
TABS,ioos:station:wmo:42048:1,2010-12-04T09:30:00Z,27.9396,-96.8429,2.0,56.00546135,12.00110828,-99999.0,'11111222,11111222,99999999' 
TABS,ioos:station:wmo:42048:1,2010-12-04T10:00:00Z,27.9396,-96.8429,2.0,49.99142681,13.00350722,-99999.0,'11111222,11111222,99999999' 
TABS,ioos:station:wmo:42048:1,2010-12-04T10:30:00Z,27.9396,-96.8429,2.0,40.97429048,13.99990357,-99999.0,'11111222,11111222,99999999' 
TABS,ioos:station:wmo:42048:1,2010-12-04T11:00:00Z,27.9396,-96.8429,2.0,40.97429048,13.99990357,-99999.0,'11111222,11111222,99999999' 
TABS,ioos:station:wmo:42048:1,2010-12-04T11:30:00Z,27.9396,-96.8429,2.0,40.99261294,16.99798223,-99999.0,'11111222,11111222,99999999' 
TABS,ioos:station:wmo:42048:1,2010-12-04T12:00:00Z,27.9396,-96.8429,2.0,33.01262132,18.99703661,-99999.0,'11111222,11111222,99999999' 
TABS,ioos:station:wmo:42048:1,2010-12-04T12:30:00Z,27.9396,-96.8429,2.0,36.007546,19.00015263,-99999.0,'11111222,11111222,99999999' 
TABS,ioos:station:wmo:42048:1,2010-12-04T13:00:00Z,27.9396,-96.8429,2.0,23.98660072,16.99791164,-99999.0,'11111222,11111222,99999999' 
TABS,ioos:station:wmo:42048:1,2010-12-04T13:30:00Z,27.9396,-96.8429,2.0,38.00999325,18.99976052,-99999.0,'11111222,11111222,99999999' 
TABS,ioos:station:wmo:42048:1,2010-12-04T14:00:00Z,27.9396,-96.8429,2.0,31.99837517,17.00342613,-99999.0,'11111222,11111222,99999999' 
TABS,ioos:station:wmo:42048:1,2010-12-04T14:30:00Z,27.9396,-96.8429,2.0,32.00871559,18.99834203,-99999.0,'11111222,11111222,99999999' 
TABS,ioos:station:wmo:42048:1,2010-12-04T15:00:00Z,27.9396,-96.8429,2.0,6.014915931,20.99558049,-99999.0,'11111222,11111222,99999999' 
TABS,ioos:station:wmo:42048:1,2010-12-04T15:30:00Z,27.9396,-96.8429,2.0,20.00570793,23.99805409,-99999.0,'11111222,11111222,99999999' 
TABS,ioos:station:wmo:42048:1,2010-12-04T16:00:00Z,27.9396,-96.8429,2.0,35.00495042,21.99965454,-99999.0,'11111222,11111222,99999999' 
TABS,ioos:station:wmo:42048:1,2010-12-04T16:30:00Z,27.9396,-96.8429,2.0,41.00383126,21.00264031,-99999.0,'11111222,11111222,99999999' 
TABS,ioos:station:wmo:42048:1,2010-12-04T17:00:00Z,27.9396,-96.8429,2.0,222.0046494,35.99848052,-99999.0,'11111222,11111222,99999999' 